GW4564 Weather Reports


time (UTC)temp
C
wind
direction
speed
KPH
gust
KPH
rain 1hr
cm
rain 24hr
cm
rain mn
cm
humidity
%
barometer
mb
20260906073030 20 63 4.8 9.7 0.00 0.00 0.00 90 1017.9
20260906072514 20 84 6.4 11.3 0.00 0.00 0.00 90 1018.0
20260906072017 20 74 6.4 11.3 0.00 0.00 0.00 90 1018.1
20260906071508 21 79 6.4 11.3 0.00 0.00 0.00 90 1018.0
20260906071004 21 68 4.8 12.9 0.00 0.00 0.00 90 1018.1
20260906070503 21 89 8.0 12.9 0.00 0.00 0.00 90 1018.1
20260906070016 21 77 6.4 12.9 0.00 0.00 0.00 90 1018.2
20260906065507 21 85 8.0 12.9 0.00 0.00 0.00 90 1018.2
20260906065011 21 76 6.4 11.3 0.00 0.00 0.00 90 1018.2
20260906064520 21 95 4.8 11.3 0.00 0.00 0.00 90 1018.4
20260906064012 21 71 4.8 11.3 0.00 0.00 0.00 90 1018.5
20260906063511 21 56 4.8 14.5 0.00 0.00 0.00 90 1018.5
20260906063028 21 112 8.0 14.5 0.00 0.00 0.00 90 1018.5
20260906062513 21 75 9.7 12.9 0.00 0.00 0.00 90 1018.2
20260906062016 21 60 6.4 11.3 0.00 0.00 0.00 90 1018.3
20260906061530 21 65 6.4 16.1 0.00 0.00 0.00 90 1018.2
20260906061013 21 86 6.4 16.1 0.00 0.00 0.00 90 1018.2
20260906060518 21 64 6.4 14.5 0.00 0.00 0.00 90 1018.1
20260906060034 22 67 8.0 12.9 0.00 0.00 0.00 90 1018.1
20260906055507 22 83 6.4 12.9 0.00 0.00 0.00 90 1018.1
20260906055003 22 99 6.4 14.5 0.00 0.00 0.00 90 1018.0
20260906054522 22 82 9.7 16.1 0.00 0.00 0.00 90 1018.0
20260906054011 22 50 8.0 16.1 0.00 0.00 0.00 90 1018.0
20260906053508 22 55 9.7 16.1 0.00 0.00 0.00 90 1018.1
20260906053034 22 38 6.4 12.9 0.00 0.00 0.00 90 1018.0
20260906052512 22 76 4.8 12.9 0.00 0.00 0.00 90 1018.0
20260906052014 22 69 6.4 9.7 0.00 0.00 0.00 90 1018.2
20260906051530 22 58 4.8 9.7 0.00 0.00 0.00 89 1018.3
20260906051017 22 43 4.8 9.7 0.00 0.00 0.00 89 1018.3
20260906050516 22 55 4.8 9.7 0.00 0.00 0.00 89 1018.2
20260906050044 22 69 4.8 9.7 0.00 0.00 0.00 89 1018.1
20260906045517 22 49 4.8 11.3 0.00 0.00 0.00 89 1018.1
20260906045014 22 32 4.8 11.3 0.00 0.00 0.00 89 1018.0
20260906044536 22 37 4.8 9.7 0.00 0.00 0.00 89 1018.0
20260906044009 22 51 6.4 9.7 0.00 0.00 0.00 90 1018.0
20260906043505 22 16 3.2 6.4 0.00 0.00 0.00 91 1017.9
20260906043020 22 36 1.6 4.8 0.00 0.00 0.00 91 1017.9
20260906042507 22 61 1.6 4.8 0.00 0.00 0.00 91 1017.8
20260906042011 22 13 1.6 4.8 0.00 0.00 0.00 91 1017.8
20260906041531 22 37 1.6 3.2 0.00 0.00 0.00 91 1017.7
20260906041011 22 304 0.0 1.6 0.00 0.00 0.00 91 1017.7
20260906040515 22 304 1.6 1.6 0.00 0.00 0.00 91 1017.7
20260906040034 22 348 0.0 3.2 0.00 0.00 0.00 91 1017.5
20260906035514 22 342 1.6 3.2 0.00 0.00 0.00 91 1017.6
20260906035014 22 336 0.0 4.8 0.00 0.00 0.00 91 1017.6
20260906034535 22 302 1.6 4.8 0.00 0.00 0.00 90 1017.5
20260906034018 22 6 0.0 3.2 0.00 0.00 0.00 90 1017.4
20260906033517 22 10 1.6 3.2 0.00 0.00 0.00 90 1017.2
20260906033044 22 7 0.0 1.6 0.00 0.00 0.00 90 1017.2
20260906032518 22 7 0.0 1.6 0.00 0.00 0.00 90 1017.2
20260906032007 22 20 0.0 1.6 0.00 0.00 0.00 90 1017.3
20260906031527 22 20 0.0 3.2 0.00 0.00 0.00 90 1017.2
20260906031012 22 21 0.0 3.2 0.00 0.00 0.00 90 1017.0
20260906030510 22 15 0.0 1.6 0.00 0.00 0.00 90 1017.0
20260906030025 22 15 0.0 1.6 0.00 0.00 0.00 90 1017.1
20260906025512 22 105 0.0 0.0 0.00 0.00 0.00 90 1017.0
20260906025018 22 106 0.0 0.0 0.00 0.00 0.00 89 1017.0
20260906024532 22 106 0.0 1.6 0.00 0.00 0.00 89 1017.0
20260906024019 22 106 0.0 1.6 0.00 0.00 0.00 88 1016.8
20260906023516 22 106 0.0 1.6 0.00 0.00 0.00 88 1016.7
20260906023035 23 106 0.0 1.6 0.00 0.00 0.00 87 1016.6
20260906022503 23 108 0.0 1.6 0.00 0.00 0.00 87 1016.5
20260906022008 23 110 0.0 3.2 0.00 0.00 0.00 87 1016.4
20260906021520 23 110 0.0 3.2 0.00 0.00 0.00 87 1016.3
20260906021007 23 110 1.6 4.8 0.00 0.00 0.00 87 1016.2
20260906020512 23 97 0.0 4.8 0.00 0.00 0.00 87 1016.2
20260906020027 23 94 0.0 4.8 0.00 0.00 0.00 87 1016.1
20260906015511 23 96 1.6 8.0 0.00 0.00 0.00 87 1016.1
20260906015004 23 61 3.2 8.0 0.00 0.00 0.00 87 1016.0
20260906014506 23 90 3.2 8.0 0.00 0.00 0.00 87 1016.0
20260906014003 23 68 4.8 8.0 0.00 0.00 0.00 86 1015.9
20260906013503 23 60 4.8 8.0 0.00 0.00 0.00 86 1015.9
20260906013013 23 59 3.2 9.7 0.00 0.00 0.00 86 1015.9
20260906012507 23 79 1.6 12.9 0.00 0.00 0.00 86 1015.9
20260906012007 23 65 6.4 12.9 0.00 0.00 0.00 87 1015.9
20260906011514 23 78 3.2 9.7 0.00 0.00 0.00 87 1015.9
20260906011005 23 71 4.8 11.3 0.00 0.00 0.00 87 1016.0
20260906010509 23 60 4.8 11.3 0.00 0.00 0.00 87 1016.0
20260906010023 23 81 3.2 11.3 0.00 0.00 0.00 86 1016.0
20260906005509 23 99 4.8 11.3 0.00 0.00 0.00 86 1015.9
20260906005012 23 80 4.8 12.9 0.00 0.00 0.00 86 1015.9
20260906004527 24 101 4.8 12.9 0.00 0.00 0.00 85 1015.8
20260906004013 24 94 6.4 12.9 0.00 0.00 0.00 84 1015.8
20260906003515 24 65 8.0 17.7 0.00 0.00 0.00 84 1015.9
20260906003007 25 59 8.0 17.7 0.00 0.00 0.00 84 1015.9
20260906002505 25 55 6.4 14.5 0.00 0.00 0.00 83 1016.0
20260906002019 25 38 6.4 19.3 0.00 0.00 0.00 83 1016.1
20260906001508 25 53 9.7 19.3 0.00 0.00 0.00 82 1016.1
20260906001017 25 54 6.4 14.5 0.00 0.00 0.00 81 1016.1
20260906000507 25 39 8.0 14.5 0.00 0.00 0.00 81 1016.1
20260906000033 26 25 8.0 14.5 0.00 0.00 0.00 80 1016.0
20260905235507 26 44 6.4 17.7 0.00 0.00 0.00 79 1016.0
20260905235023 26 70 8.0 17.7 0.00 0.00 0.00 79 1015.9
20260905234534 26 60 8.0 17.7 0.00 0.00 0.00 78 1015.9
20260905234019 26 60 8.0 17.7 0.00 0.00 0.00 77 1015.9
20260905233511 26 56 6.4 12.9 0.00 0.00 0.00 77 1015.9
20260905233026 27 64 8.0 16.1 0.00 0.00 0.00 76 1015.8
20260905232514 27 55 9.7 16.1 0.00 0.00 0.00 76 1015.7
20260905232016 27 25 8.0 19.3 0.00 0.00 0.00 76 1015.7
20260905231508 27 75 11.3 19.3 0.00 0.00 0.00 76 1015.7
20260905231016 27 60 12.9 19.3 0.00 0.00 0.00 76 1015.7
20260905230506 27 60 6.4 16.1 0.00 0.00 0.00 77 1015.6
20260905230011 27 77 4.8 16.1 0.00 0.00 0.00 77 1015.6
20260905225508 27 78 8.0 17.7 0.00 0.00 0.00 76 1015.6
20260905225008 27 117 9.7 17.7 0.00 0.00 0.00 77 1015.6
20260905224552 27 89 9.7 14.5 0.00 0.00 0.00 77 1015.7
20260905224012 27 77 4.8 19.3 0.00 0.00 0.00 76 1015.8
20260905223510 27 54 8.0 19.3 0.00 0.00 0.00 75 1015.8
20260905223023 27 56 9.7 19.3 0.00 0.00 0.00 75 1015.9
20260905222512 27 56 11.3 19.3 0.00 0.00 0.00 76 1015.9
20260905222013 27 323 6.4 25.7 0.00 0.00 0.00 78 1015.8
20260905221544 27 56 8.0 25.7 0.00 0.00 0.00 77 1015.8
20260905221019 27 4 8.0 22.5 0.00 0.00 0.00 78 1015.8
20260905220519 27 65 8.0 22.5 0.00 0.00 0.00 78 1015.7
20260905220011 27 44 12.9 17.7 0.00 0.00 0.00 77 1015.6
20260905215505 27 64 8.0 19.3 0.00 0.00 0.00 78 1015.6
20260905215004 28 55 9.7 20.9 0.00 0.00 0.00 77 1015.6
20260905214516 28 53 11.3 20.9 0.00 0.00 0.00 77 1015.7
20260905214018 28 72 9.7 17.7 0.00 0.00 0.00 78 1015.6
20260905213508 27 54 8.0 17.7 0.00 0.00 0.00 79 1015.5
20260905213020 27 54 9.7 17.7 0.00 0.00 0.00 79 1015.6
20260905212510 28 322 11.3 17.7 0.00 0.00 0.00 78 1015.7
20260905212018 28 47 8.0 16.1 0.00 0.00 0.00 79 1015.8
20260905211525 28 89 6.4 16.1 0.00 0.00 0.00 78 1015.8
20260905211015 28 36 8.0 19.3 0.00 0.00 0.00 79 1015.7
20260905210519 28 65 9.7 22.5 0.00 0.00 0.00 78 1015.6
20260905210036 28 62 11.3 22.5 0.00 0.00 0.00 77 1015.5
20260905205520 29 66 11.3 22.5 0.00 0.00 0.00 76 1015.3
20260905205016 30 49 9.7 20.9 0.00 0.00 0.00 77 1015.2
20260905204534 30 58 11.3 20.9 0.00 0.00 0.00 77 1015.1
20260905204008 30 56 9.7 20.9 0.00 0.00 0.00 77 1015.1
20260905203506 30 63 8.0 20.9 0.00 0.00 0.00 78 1015.1
20260905203017 30 60 11.3 19.3 0.00 0.00 0.00 75 1015.3
20260905202509 30 72 9.7 19.3 0.00 0.00 0.00 77 1015.3
20260905202017 30 56 9.7 19.3 0.00 0.00 0.00 77 1015.3
20260905201524 31 48 11.3 19.3 0.00 0.00 0.00 74 1015.4
20260905201020 31 80 9.7 14.5 0.00 0.00 0.00 74 1015.4
20260905200518 31 354 8.0 14.5 0.00 0.00 0.00 72 1015.6
20260905200028 32 351 9.7 14.5 0.00 0.00 0.00 72 1015.6
20260905195512 31 58 3.2 9.7 0.00 0.00 0.00 73 1015.6
20260905195020 31 350 4.8 12.9 0.00 0.00 0.00 73 1015.6
20260905194534 31 84 6.4 12.9 0.00 0.00 0.00 71 1015.6
20260905194017 31 25 4.8 11.3 0.00 0.00 0.00 71 1015.6
20260905193520 31 27 6.4 11.3 0.00 0.00 0.00 71 1015.6
20260905193038 31 1 0.0 8.0 0.00 0.00 0.00 75 1015.6
20260905192517 31 352 4.8 11.3 0.00 0.00 0.00 73 1015.6
20260905192010 31 65 6.4 11.3 0.00 0.00 0.00 72 1015.6
20260905191519 31 41 8.0 11.3 0.00 0.00 0.00 71 1015.6
20260905191010 31 53 6.4 12.9 0.00 0.00 0.00 74 1015.6
20260905190520 31 84 4.8 12.9 0.00 0.00 0.00 73 1015.6
20260905190027 31 55 6.4 9.7 0.00 0.00 0.00 73 1015.7
20260905185515 31 51 3.2 14.5 0.00 0.00 0.00 74 1015.7
20260905185014 31 46 4.8 14.5 0.00 0.00 0.00 72 1015.8
20260905184533 31 30 3.2 11.3 0.00 0.00 0.00 72 1015.8
20260905184017 31 52 4.8 12.9 0.00 0.00 0.00 71 1015.7
20260905183516 31 54 8.0 12.9 0.00 0.00 0.00 70 1015.8
20260905183033 31 60 3.2 11.3 0.00 0.00 0.00 72 1015.8
20260905182518 31 89 6.4 9.7 0.00 0.00 0.00 72 1015.8
20260905182017 31 20 4.8 12.9 0.00 0.00 0.00 73 1015.7
20260905181545 31 33 8.0 12.9 0.00 0.00 0.00 73 1015.6
20260905181007 31 354 4.8 11.3 0.00 0.00 0.00 72 1015.6
20260905180510 30 91 3.2 11.3 0.00 0.00 0.00 75 1015.7
20260905180024 30 58 8.0 12.9 0.00 0.00 0.00 74 1015.7
20260905175512 31 49 9.7 11.3 0.00 0.00 0.00 74 1015.8
20260905175010 31 86 6.4 11.3 0.00 0.00 0.00 73 1015.8
20260905174535 31 10 6.4 11.3 0.00 0.00 0.00 72 1015.7
20260905174020 31 43 4.8 11.3 0.00 0.00 0.00 72 1015.7
20260905173517 30 45 6.4 14.5 0.00 0.00 0.00 74 1015.9
20260905173035 30 73 6.4 14.5 0.00 0.00 0.00 73 1016.0
20260905172514 30 349 6.4 12.9 0.00 0.00 0.00 73 1016.0
20260905172017 31 54 4.8 9.7 0.00 0.00 0.00 73 1016.1
20260905171540 30 44 6.4 14.5 0.00 0.00 0.00 73 1016.1
20260905171015 30 44 6.4 14.5 0.00 0.00 0.00 73 1016.2
20260905170516 31 34 9.7 14.5 0.00 0.00 0.00 72 1016.2
20260905170032 31 65 6.4 14.5 0.00 0.00 0.00 73 1016.3
20260905165513 31 113 8.0 14.5 0.00 0.00 0.00 75 1016.3
20260905165012 30 77 8.0 12.9 0.00 0.00 0.00 74 1016.3
20260905164530 30 36 9.7 12.9 0.00 0.00 0.00 73 1016.3
20260905164018 30 103 4.8 16.1 0.00 0.00 0.00 74 1016.3
20260905163512 30 352 8.0 16.1 0.00 0.00 0.00 72 1016.3
20260905163034 31 30 8.0 14.5 0.00 0.00 0.00 73 1016.2
20260905162521 30 59 6.4 14.5 0.00 0.00 0.00 73 1016.2
20260905162014 30 327 8.0 14.5 0.00 0.00 0.00 73 1016.2
20260905161532 30 38 8.0 16.1 0.00 0.00 0.00 74 1016.2
20260905161015 30 39 8.0 16.1 0.00 0.00 0.00 74 1016.2
20260905160516 30 74 8.0 16.1 0.00 0.00 0.00 74 1016.1
20260905160057 30 327 8.0 16.1 0.00 0.00 0.00 73 1016.1
20260905155519 30 55 8.0 12.9 0.00 0.00 0.00 75 1016.1
20260905155020 30 91 8.0 12.9 0.00 0.00 0.00 75 1016.0
20260905154540 30 49 6.4 14.5 0.00 0.00 0.00 75 1015.9
20260905154018 30 61 8.0 14.5 0.00 0.00 0.00 76 1016.0
20260905153510 29 50 4.8 16.1 0.00 0.00 0.00 76 1016.0
20260905153027 29 29 8.0 14.5 0.00 0.00 0.00 75 1016.0
20260905152516 29 51 9.7 14.5 0.00 0.00 0.00 75 1016.0
20260905152018 29 40 8.0 12.9 0.00 0.00 0.00 75 1016.0
20260905151535 29 83 8.0 12.9 0.00 0.00 0.00 74 1016.0
20260905151019 29 55 6.4 16.1 0.00 0.00 0.00 77 1016.0
20260905150514 29 56 9.7 16.1 0.00 0.00 0.00 76 1015.9
20260905150033 28 44 9.7 16.1 0.00 0.00 0.00 75 1015.9
20260905145517 29 56 9.7 14.5 0.00 0.00 0.00 74 1015.8
20260905145022 28 61 8.0 12.9 0.00 0.00 0.00 76 1015.7
20260905144540 28 8 6.4 11.3 0.00 0.00 0.00 78 1015.6
20260905144018 28 29 4.8 9.7 0.00 0.00 0.00 78 1015.5
20260905143515 28 44 6.4 11.3 0.00 0.00 0.00 78 1015.6
20260905143032 28 58 6.4 11.3 0.00 0.00 0.00 79 1015.4
20260905142509 28 63 3.2 9.7 0.00 0.00 0.00 83 1015.3
20260905142010 27 64 4.8 9.7 0.00 0.00 0.00 84 1015.3
20260905141542 27 63 6.4 9.7 0.00 0.00 0.00 84 1015.2
20260905141019 27 46 4.8 9.7 0.00 0.00 0.00 85 1015.2
20260905140504 27 64 3.2 8.0 0.00 0.00 0.00 85 1015.2
20260905140008 27 60 4.8 8.0 0.00 0.00 0.00 85 1015.2
20260905135504 27 356 3.2 8.0 0.00 0.00 0.00 86 1015.2
20260905135004 26 56 4.8 8.0 0.00 0.00 0.00 85 1015.1
20260905134512 26 68 3.2 6.4 0.00 0.00 0.00 87 1015.1
20260905134021 26 62 1.6 6.4 0.00 0.00 0.00 87 1015.1
20260905133517 26 61 1.6 6.4 0.00 0.00 0.00 89 1015.0
20260905133040 25 70 3.2 6.4 0.00 0.00 0.00 89 1015.0
20260905132519 25 57 3.2 6.4 0.00 0.00 0.00 90 1015.1
20260905132020 25 46 3.2 6.4 0.00 0.00 0.00 91 1015.0
20260905131523 25 359 4.8 6.4 0.00 0.00 0.00 91 1015.0
20260905131016 25 49 1.6 4.8 0.00 0.00 0.00 92 1015.0
20260905130513 24 63 1.6 4.8 0.00 0.00 0.00 93 1014.9
20260905130035 24 359 1.6 4.8 0.00 0.00 0.00 93 1015.0
20260905125517 24 18 3.2 4.8 0.00 0.00 0.00 93 1015.0
20260905125018 23 45 1.6 3.2 0.00 0.00 0.00 93 1014.9
20260905124510 23 16 1.6 3.2 0.00 0.00 0.00 94 1014.9
20260905124005 23 341 0.0 1.6 0.00 0.00 0.00 94 1014.9
20260905123515 23 339 0.0 3.2 0.00 0.00 0.00 94 1014.8
20260905123031 22 19 1.6 3.2 0.00 0.00 0.00 94 1014.7
20260905122510 22 5 0.0 3.2 0.00 0.00 0.00 94 1014.6
20260905122009 22 5 0.0 4.8 0.00 0.00 0.00 93 1014.6
20260905121524 22 1 3.2 4.8 0.00 0.00 0.00 94 1014.4
20260905121011 22 236 0.0 0.0 0.00 0.00 0.00 94 1014.3
20260905120514 22 236 0.0 0.0 0.00 0.00 0.00 94 1014.2
20260905120028 22 236 0.0 0.0 0.00 0.00 0.00 94 1014.4
20260905115515 21 236 0.0 0.0 0.00 0.00 0.00 93 1014.5
20260905115014 21 236 0.0 0.0 0.00 0.00 0.00 93 1014.3
20260905114535 22 236 0.0 0.0 0.00 0.00 0.00 93 1014.1
20260905114019 22 236 0.0 0.0 0.00 0.00 0.00 93 1013.8
20260905113515 22 236 0.0 0.0 0.00 0.00 0.00 94 1013.7
20260905113014 22 235 0.0 0.0 0.00 0.00 0.00 94 1013.7
20260905112503 22 235 0.0 0.0 0.00 0.00 0.00 94 1013.6
20260905112002 22 236 0.0 0.0 0.00 0.00 0.00 94 1013.5
20260905111506 22 236 0.0 0.0 0.00 0.00 0.00 94 1013.5
20260905111003 22 236 0.0 0.0 0.00 0.00 0.00 94 1013.5
20260905110503 22 235 0.0 0.0 0.00 0.00 0.00 94 1013.5
20260905110004 22 251 0.0 0.0 0.00 0.00 0.00 94 1013.5
20260905105504 22 251 0.0 0.0 0.00 0.00 0.00 94 1013.5
20260905105005 22 251 0.0 0.0 0.00 0.00 0.00 94 1013.6
20260905104507 22 251 0.0 0.0 0.00 0.00 0.00 93 1013.5
20260905104003 22 251 0.0 0.0 0.00 0.00 0.00 93 1013.4
20260905103505 22 251 0.0 0.0 0.00 0.00 0.00 93 1013.4
20260905103018 22 251 0.0 0.0 0.00 0.00 0.00 94 1013.5
20260905102503 22 251 0.0 0.0 0.00 0.00 0.00 94 1013.5
20260905102003 22 251 0.0 0.0 0.00 0.00 0.00 93 1013.5
20260905101512 22 251 0.0 0.0 0.00 0.00 0.00 93 1013.6
20260905101003 22 251 0.0 0.0 0.00 0.00 0.00 94 1013.6
20260905100507 22 251 0.0 0.0 0.00 0.00 0.00 94 1013.7
20260905100017 22 251 0.0 0.0 0.00 0.00 0.00 93 1013.7
20260905095503 22 251 0.0 1.6 0.00 0.00 0.00 93 1013.8
20260905095002 22 251 0.0 1.6 0.00 0.00 0.00 93 1013.9
20260905094508 22 285 0.0 1.6 0.00 0.00 0.00 93 1013.8
20260905094003 22 345 0.0 0.0 0.00 0.00 0.00 93 1013.9
20260905093503 22 345 0.0 0.0 0.00 0.00 0.00 93 1013.8
20260905093016 22 345 0.0 0.0 0.00 0.00 0.00 93 1013.9
20260905092503 22 345 0.0 1.6 0.00 0.00 0.00 93 1014.0
20260905092004 22 345 0.0 4.8 0.00 0.00 0.00 93 1014.0
20260905091529 22 359 1.6 4.8 0.00 0.00 0.00 93 1014.0
20260905091002 22 351 1.6 3.2 0.00 0.00 0.00 93 1013.9
20260905090505 22 354 1.6 1.6 0.00 0.00 0.00 93 1013.9
20260905090015 22 354 0.0 3.2 0.00 0.00 0.00 93 1013.9
20260905085508 23 353 1.6 3.2 0.00 0.00 0.00 93 1013.9
20260905085007 23 308 0.0 1.6 0.00 0.00 0.00 93 1013.9
20260905084517 23 307 0.0 0.0 0.00 0.00 0.00 93 1013.9
20260905084003 23 307 0.0 0.0 0.00 0.00 0.00 93 1013.9
20260905083503 23 307 0.0 1.6 0.00 0.00 0.00 93 1014.0
20260905083004 22 307 0.0 3.2 0.00 0.00 0.00 93 1014.0
20260905082503 22 350 0.0 3.2 0.00 0.00 0.00 92 1014.1
20260905082004 23 15 1.6 3.2 0.00 0.00 0.00 93 1014.1
20260905081510 23 220 0.0 1.6 0.00 0.00 0.00 93 1014.0
20260905081004 23 220 0.0 0.0 0.00 0.00 0.00 93 1014.1
20260905080504 23 220 0.0 0.0 0.00 0.00 0.00 93 1014.2
20260905080014 23 220 0.0 0.0 0.00 0.00 0.00 93 1014.2
20260905075509 23 220 0.0 1.6 0.00 0.00 0.00 93 1014.2
20260905075009 23 220 0.0 1.6 0.00 0.00 0.00 93 1014.2
20260905074521 23 221 0.0 0.0 0.00 0.00 0.00 93 1014.2
20260905074008 23 221 0.0 0.0 0.00 0.00 0.00 93 1014.2
20260905073508 23 220 0.0 1.6 0.00 0.00 0.00 92 1014.2